User: anonymous   Login
Location: Budapest
(47.4979°N, 19.0402°E)
Time: 17:53:01
(UTC+02:00)
Language:

BUGSAT 1 - Orbit

View from above orbital plane
View from above orbital plane
View from above satellite
View from above satellite

Ground track
Ground track

The orbit data is extracted from the following two-line orbital elements,

1 40014U 14033E   18170.10999270  .00000512  00000-0  51932-4 0  9996
2 40014  97.9784 105.5370 0031425 186.3690 173.7149 14.95058796218023
Epoch (UTC): 19 June 2018 02:38:23
Eccentricity: 0.0031425
inclination: 97.9784°
perigee height: 560 km
apogee height: 604 km
right ascension of ascending node: 105.5370°
argument of perigee: 186.3690°
revolutions per day: 14.95058796
mean anomaly at epoch: 173.7149°
orbit number at epoch: 21802

The dashed part of the orbit path shows where the satellite is in the earth's shadow,  

DLR